Volver al catálogo

FENGYUN 1C DEB

LostSSO
NORAD 37062·DEBRIS·🇨🇳 China

Lanzado May 10, 1999 desde Taiyuan Satellite Launch Center

Loading…

Próximos Pases (próximas 24 horas)

TLE

ObsoletoSource: Space-Track

Época: Aug 27, 2013, 19:28 UTC

1 37062U 99025EEW 13239.81117959 +.00000694 +00000-0 +18360-3 0  9992
2 37062 098.6149 244.9623 0218378 003.9261 002.7389 14.39013980259774

Sigue FENGYUN 1C DEB en tiempo real con AllMySat

Download on the App Store